Temp
46 48 48 48 49 49 50 49 49 50 50 50 50 50 50 50 50 44 37 43 36 31 33 36 38 33 30 30 28 27 31 31 32 28 27 27 28 30 29 32 30 31 31 31 32 30 28 35 33 35 38 34 32 33
45 46 48 47 47 48 48 49 49 49 49 49 50 50 50 50 50 47 34 41 42 32 31 36 39 42 41 39 35 25 27 24 34 22 29 29 28 29 27 26 30 28 37 34 35 34 39 36 35 37 37 38 35 35
44 47 47 46 47 46 47 48 49 49 49 49 49 49 49 49 50 46 35 38 37 32 31 31 30 37 39 41 44 33 33 35 31 33 33 31 28 27 26 28 28 31 33 30 30 34 36 36 36 35 35 36 36 34
44 46 46 45 45 45 46 46 48 48 48 48 48 48 49 49 49 48 35 38 35 31 23 26 35 34 35 37 39 41 37 37 36 35 32 27 28 32 26 29 29 31 32 30 30 33 34 35 33 34 35 35 35 34
45 45 45 44 43 46 45 46 48 48 47 48 48 48 48 48 48 44 37 38 40 30 22 23 29 34 33 35 35 37 37 35 32 31 30 28 25 25 20 26 30 30 31 30 29 35 35 34 32 33 34 34 34 34
44 44 43 42 44 46 47 47 47 47 47 47 47 47 47 47 47 37 30 33 39 37 29 22 30 27 27 32 34 34 37 36 35 32 30 31 32 28 21 15 30 31 31 32 31 31 31 32 32 32 33 33 33 32
43 43 43 43 45 45 45 45 45 46 46 46 46 47 47 46 39 31 25 32 42 39 25 22 19 24 28 33 33 34 35 35 34 32 31 28 27 31 21 23 32 29 29 30 29 31 32 31 32 33 33 32 30 28
43 42 42 44 44 44 43 43 44 44 44 45 46 46 46 46 42 35 37 42 42 34 30 21 13 22 31 28 28 33 31 32 31 31 29 27 28 29 24 28 26 25 26 26 25 28 29 30 29 28 28 28 28 25
42 41 43 43 43 44 44 44 44 45 45 45 46 46 38 35 30 28 43 44 39 33 25 20 9 9 27 27 28 28 31 25 28 27 26 27 25 23 26 26 22 20 21 20 19 20 23 24 25 23 25 24 24 22
37 42 43 43 43 44 44 44 45 44 44 45 36 28 26 24 40 41 33 29 29 29 28 14 20 20 26 25 23 19 22 22 15 22 27 24 21 20 16 12 13 13 12 13 14 16 21 22 21 20 18 19 20 19
42 42 42 43 43 43 43 43 43 44 41 32 27 26 31 40 31 26 23 21 20 19 16 15 22 16 26 19 21 26 19 18 13 18 21 17 16 19 10 6 8 9 9 7 10 13 14 15 16 14 11 11 11 11
41 42 42 43 43 43 43 43 42 34 30 32 30 31 29 24 22 19 14 11 18 12 10 19 18 20 25 24 24 22 19 16 10 13 17 12 14 4 4 3 1 1 -1 1 2 5 5 7 7 6 4 3 2 3
41 41 41 42 43 43 42 42 39 39 38 31 24 19 21 15 11 11 7 6 4 2 11 20 19 26 25 27 22 22 16 14 16 13 10 12 -0 -3 -4 -2 -3 -4 -2 -1 -0 0 0 1 -1 0 -1 -2 -3 -4
40 40 40 40 41 41 42 41 39 40 28 19 16 11 10 4 2 2 2 5 8 13 6 13 19 19 26 23 24 18 18 16 12 12 7 -6 -9 -9 -6 -6 -6 -6 -5 -3 -2 -1 -0 -2 -4 -4 -5 -4 -4 -6
38 38 38 36 37 39 39 37 36 30 26 18 13 6 5 -1 -6 -10 -11 -3 -2 -2 11 19 15 23 17 21 23 17 13 12 11 9 -8 -10 -9 -7 -8 -8 -8 -7 -6 -5 -3 -3 -3 -4 -5 -7 -7 -7 -6 -7
36 34 33 38 37 37 35 29 23 20 13 14 6 5 -9 -3 -9 -10 -9 -7 -0 2 10 15 13 11 14 16 10 14 14 12 4 -16 -12 -8 -11 -11 -10 -9 -9 -8 -8 -7 -7 -6 -6 -7 -8 -9 -8 -10 -10 -9
31 20 35 36 34 32 30 15 14 7 5 4 -14 -8 -4 -11 -15 -18 -9 -6 -0 0 14 12 17 8 8 9 7 -12 -11 -20 -20 -15 -11 -10 -11 -11 -9 -10 -9 -8 -8 -8 -7 -7 -8 -6 -5 -6 -10 -11 -9 -9
16 23 33 34 25 21 9 11 9 5 -5 -6 -13 -17 -13 -10 -9 -10 -11 -5 -3 -1 1 0 1 2 -9 -4 -3 -11 -14 -16 -14 -11 -10 -10 -11 -10 -8 -10 -9 -8 -9 -8 -8 -8 -7 -8 -9 -11 -11 -10 -9 -9
21 24 32 32 22 10 4 5 8 -3 -8 -11 -6 -6 -10 -11 -8 -8 -8 -5 -5 -5 -5 -6 -10 -15 -18 -17 -16 -11 -9 -8 -10 -9 -9 -9 -8 -8 -8 -8 -8 -9 -9 -9 -9 -10 -11 -11 -10 -9 -8 -7 -10 -10
27 27 27 27 22 9 3 3 9 -0 -11 -7 -5 -8 -9 -10 -9 -13 -11 -9 -8 -12 -19 -21 -23 -20 -17 -15 -14 -13 -9 -7 -8 -10 -9 -7 -7 -7 -7 -7 -8 -8 -8 -8 -8 -7 -8 -9 -10 -9 -9 -8 -9 -12
14 15 18 14 8 6 2 4 3 2 -2 -7 -4 -3 -8 -8 -14 -18 -18 -10 -16 -19 -21 -21 -21 -18 -13 -13 -10 -8 -5 -4 -6 -7 -9 -10 -8 -8 -9 -8 -8 -9 -9 -10 -11 -12 -12 -14 -13 -12 -13 -15 -15 -16
4 14 -1 4 3 -0 -1 1 2 4 -2 -7 -6 -7 -12 -14 -15 -16 -13 -18 -20 -21 -19 -19 -17 -15 -14 -13 -12 -9 -7 -6 -6 -6 -6 -7 -10 -10 -11 -10 -11 -14 -15 -15 -13 -14 -16 -15 -15 -15 -16 -22 -20 -21
5 3 -5 -8 -8 -10 -11 -0 -6 -2 -6 -7 -7 -11 -14 -16 -14 -9 -19 -20 -21 -15 -16 -16 -15 -12 -13 -11 -11 -11 -9 -9 -12 -12 -12 -13 -14 -13 -14 -14 -12 -14 -16 -17 -16 -16 -17 -15 -16 -18 -21 -21 -25 -26
-2 -15 -20 -21 -18 -23 -14 -14 -7 -6 -6 -10 -12 -15 -17 -18 -12 -18 -27 -28 -19 -15 -16 -15 -12 -12 -12 -13 -16 -16 -14 -10 -12 -13 -12 -13 -16 -19 -17 -18 -18 -19 -18 -18 -18 -19 -20 -25 -21 -24 -25 -30 -31 -31
-17 -28 -25 -32 -22 -23 -22 -20 -18 -12 -16 -14 -15 -17 -18 -16 -20 -24 -23 -23 -20 -18 -16 -14 -14 -13 -16 -16 -15 -16 -15 -12 -13 -17 -16 -15 -18 -18 -19 -20 -21 -23 -24 -25 -29 -31 -32 -33 -31 -31 -31 -33 -32 -32
-34 -30 -33 -34 -29 -29 -26 -25 -24 -23 -18 -19 -20 -17 -16 -17 -21 -25 -22 -19 -18 -18 -18 -17 -15 -16 -18 -17 -16 -16 -18 -18 -13 -16 -17 -17 -16 -17 -19 -20 -25 -25 -33 -35 -33 -33 -33 -32 -35 -34 -31 -31 -28 -33
-34 -35 -28 -23 -26 -23 -24 -22 -20 -22 -25 -26 -25 -20 -18 -24 -26 -22 -16 -14 -16 -17 -16 -16 -14 -14 -16 -17 -18 -19 -20 -20 -17 -18 -22 -22 -23 -23 -22 -24 -27 -26 -34 -36 -36 -36 -34 -35 -34 -33 -31 -32 -34 -31
-29 -28 -31 -27 -28 -25 -27 -27 -27 -28 -26 -23 -23 -27 -27 -26 -26 -19 -16 -15 -16 -17 -18 -19 -19 -17 -18 -19 -21 -19 -20 -21 -22 -23 -22 -23 -31 -34 -36 -35 -33 -14 -29 -32 -30 -31 -37 -35 -34 -30 -29 -26 -23 -30
-26 -23 -23 -27 -25 -23 -26 -26 -26 -24 -21 -24 -25 -26 -26 -23 -24 -21 -16 -14 -14 -15 -17 -18 -19 -20 -20 -21 -22 -23 -24 -20 -18 -21 -25 -26 -26 -25 -35 -37 -37 -35 -35 -38 -23 -14 -18 -21 -21 -20 -22 -23 -22 -25
-24 -23 -24 -25 -25 -26 -24 -24 -25 -22 -20 -19 -19 -19 -21 -22 -20 -17 -17 -16 -16 -18 -20 -20 -21 -19 -20 -20 -20 -21 -26 -28 -28 -27 -29 -29 -27 -31 -38 -38 -34 -34 -36 -41 -30 -28 -22 -26 -27 -31 -27 -26 -27 -25
-21 -22 -22 -22 -24 -23 -24 -26 -25 -21 -20 -22 -21 -22 -25 -24 -19 -19 -19 -22 -24 -24 -24 -24 -24 -29 -28 -29 -33 -32 -28 -35 -38 -35 -37 -38 -38 -38 -35 -32 -31 -36 -39 -38 -35 -37 -31 -30 -31 -30 -29 -28 -27 -25
-26 -30 -24 -21 -22 -25 -27 -26 -27 -26 -26 -25 -27 -27 -26 -24 -23 -20 -24 -32 -35 -33 -27 -30 -33 -28 -30 -32 -37 -37 -26 -33 -33 -29 -31 -29 -31 -30 -29 -29 -30 -33 -34 -29 -29 -29 -28 -30 -28 -27 -26 -26 -25 -24
-44 -45 -43 -31 -29 -28 -32 -34 -31 -31 -32 -35 -33 -41 -41 -34 -25 -23 -27 -30 -26 -25 -27 -28 -28 -34 -33 -31 -30 -32 -27 -31 -31 -18 -14 -15 -17 -17 -18 -20 -24 -26 -26 -24 -24 -24 -26 -26 -26 -25 -25 -24 -24 -23
MSLP
1003.63 1003.68 1003.88 1004.33 1004.64 1004.86 1005.24 1005.77 1006.38 1006.93 1007.50 1008.05 1008.55 1009.18 1009.71 1010.26 1010.88 1011.81 1012.43 1012.88 1013.64 1013.58 1013.03 1012.86 1012.88 1013.03 1013.09 1012.87 1013.28 1012.87 1013.80 1013.58 1013.57 1012.91 1012.41 1011.80 1011.05 1010.30 1009.81 1009.15 1009.07 1008.85 1008.25 1007.22 1007.15 1006.40 1005.61 1005.79 1006.63 1006.23 1005.46 1005.46 1005.87 1005.76
1002.29 1002.13 1002.43 1002.97 1003.42 1003.73 1004.18 1004.66 1005.29 1005.84 1006.56 1007.13 1007.68 1008.22 1008.77 1009.37 1010.03 1010.81 1012.09 1012.41 1013.00 1013.41 1013.07 1012.76 1012.12 1011.56 1011.50 1012.04 1012.20 1012.40 1012.01 1011.99 1011.76 1011.69 1011.76 1011.38 1010.91 1010.25 1009.58 1008.97 1008.88 1008.46 1007.06 1006.88 1006.68 1005.66 1004.95 1005.31 1005.14 1004.64 1004.75 1005.32 1005.59 1005.68
1000.20 1000.54 1001.09 1001.71 1002.14 1002.74 1003.22 1003.75 1004.22 1004.88 1005.50 1006.13 1006.70 1007.28 1007.83 1008.49 1009.19 1009.96 1011.07 1011.81 1012.55 1012.94 1012.69 1012.55 1011.67 1010.90 1010.57 1010.87 1011.32 1011.74 1011.52 1011.39 1011.35 1010.68 1011.04 1010.98 1010.76 1010.29 1010.00 1009.39 1008.81 1007.91 1007.22 1006.90 1006.70 1005.99 1005.84 1005.81 1005.93 1005.87 1005.86 1005.92 1005.94 1006.20
999.05 999.45 1000.03 1000.59 1001.32 1001.48 1002.30 1003.00 1003.39 1004.01 1004.67 1005.30 1005.84 1006.39 1006.99 1007.69 1008.44 1009.14 1010.42 1011.11 1012.06 1012.64 1012.71 1011.38 1010.80 1010.67 1009.58 1010.13 1010.80 1010.63 1010.97 1011.23 1011.20 1011.19 1010.78 1010.69 1010.51 1010.13 1010.10 1009.66 1009.01 1008.27 1008.05 1007.39 1006.99 1006.33 1006.37 1005.72 1005.56 1005.87 1006.00 1006.19 1006.33 1006.50
998.40 998.73 999.15 999.52 1000.19 1000.61 1001.60 1002.27 1002.56 1003.17 1003.92 1004.53 1005.12 1005.66 1006.28 1007.06 1007.85 1008.70 1009.81 1010.36 1010.71 1011.90 1011.92 1011.59 1010.73 1009.40 1009.47 1010.00 1010.17 1009.91 1010.29 1010.50 1010.56 1010.64 1010.55 1010.42 1010.35 1010.53 1010.35 1010.32 1009.78 1009.04 1008.25 1008.15 1007.13 1006.41 1006.49 1006.40 1006.28 1006.34 1006.62 1006.81 1006.94 1007.03
997.69 998.05 998.53 999.15 999.33 1000.07 1000.56 1001.18 1001.80 1002.45 1003.25 1003.91 1004.44 1005.07 1005.75 1006.61 1007.41 1008.80 1009.67 1010.15 1010.11 1010.60 1011.59 1011.53 1010.29 1009.62 1009.54 1009.83 1009.74 1009.26 1009.25 1009.67 1009.64 1009.43 1009.45 1009.48 1009.42 1010.35 1010.36 1009.59 1008.29 1007.87 1007.89 1007.80 1007.77 1007.61 1007.70 1007.57 1007.25 1006.90 1007.04 1007.34 1007.63 1008.05
997.00 997.39 997.97 998.71 999.13 999.64 1000.21 1000.80 1001.38 1002.02 1002.70 1003.36 1003.99 1004.62 1005.35 1006.17 1007.11 1007.78 1008.28 1008.03 1008.52 1009.68 1010.92 1011.38 1010.78 1009.81 1009.81 1009.94 1009.23 1008.77 1008.67 1008.81 1008.93 1008.84 1008.46 1009.04 1009.33 1009.31 1009.57 1009.38 1008.67 1008.62 1008.61 1008.70 1008.58 1008.55 1008.40 1008.21 1007.82 1007.51 1007.54 1007.98 1008.58 1009.11
996.49 997.01 997.80 998.35 998.94 999.52 999.97 1000.69 1001.19 1001.82 1002.53 1003.10 1003.74 1004.38 1005.06 1005.73 1006.77 1007.31 1007.33 1007.85 1008.41 1009.46 1010.27 1010.78 1010.60 1010.69 1009.83 1009.51 1009.03 1008.60 1008.38 1008.60 1008.50 1008.24 1008.69 1009.02 1009.24 1009.16 1009.14 1008.85 1009.09 1009.48 1009.76 1009.83 1009.72 1009.68 1009.32 1009.13 1008.86 1008.86 1009.11 1009.53 1009.73 1009.92
996.44 996.96 997.48 998.18 998.76 999.23 1000.00 1000.52 1001.05 1001.59 1002.23 1002.81 1003.48 1004.31 1005.32 1005.89 1006.50 1006.87 1006.84 1007.55 1008.24 1009.18 1008.75 1009.41 1010.10 1010.39 1009.69 1008.88 1008.53 1008.33 1007.99 1008.40 1008.33 1008.11 1008.33 1009.13 1008.83 1008.65 1008.89 1009.30 1009.87 1010.32 1010.66 1010.87 1011.04 1010.71 1010.24 1010.28 1010.34 1010.32 1010.37 1010.77 1010.99 1011.57
996.67 997.00 997.56 998.11 998.75 999.27 999.80 1000.28 1000.74 1001.36 1002.03 1002.80 1004.19 1004.72 1005.08 1005.66 1005.61 1006.14 1007.35 1008.04 1008.22 1008.01 1008.45 1008.85 1009.14 1009.70 1009.41 1009.12 1008.74 1008.49 1007.75 1007.94 1008.17 1007.86 1008.17 1008.86 1009.14 1008.83 1009.46 1010.47 1011.24 1011.88 1012.24 1012.35 1012.30 1012.10 1011.77 1011.91 1011.87 1012.05 1012.45 1012.43 1012.55 1012.93
996.90 997.18 997.82 998.34 998.82 999.29 999.74 1000.18 1000.57 1001.21 1002.04 1002.81 1004.03 1004.92 1005.36 1005.31 1006.07 1007.03 1007.47 1008.08 1008.38 1008.46 1008.22 1008.19 1008.28 1008.52 1008.40 1008.48 1008.63 1008.29 1008.04 1008.01 1008.08 1007.76 1008.29 1009.87 1010.92 1010.32 1011.30 1012.60 1013.59 1014.20 1014.37 1014.24 1013.93 1013.38 1013.26 1013.26 1013.42 1013.81 1014.11 1014.44 1014.48 1014.75
997.14 997.45 997.95 998.43 998.84 999.24 999.55 1000.04 1000.58 1001.51 1002.06 1002.81 1003.69 1004.84 1005.45 1006.08 1006.93 1007.82 1008.77 1009.47 1009.61 1009.37 1008.65 1008.19 1007.82 1007.34 1007.56 1007.50 1007.51 1007.57 1007.57 1008.02 1007.89 1008.14 1009.58 1011.44 1011.67 1013.32 1014.21 1015.18 1016.07 1016.48 1016.43 1016.14 1016.05 1015.71 1015.42 1015.27 1015.27 1015.96 1016.57 1016.51 1016.58 1016.81
997.52 997.94 998.31 998.64 998.95 999.21 999.59 999.91 1000.33 1001.35 1001.83 1003.28 1004.23 1005.46 1006.41 1007.64 1008.57 1009.52 1010.37 1010.82 1010.88 1009.75 1008.75 1008.00 1007.55 1006.71 1006.90 1006.68 1006.75 1007.01 1007.49 1007.85 1008.34 1009.90 1010.78 1011.69 1013.75 1015.61 1016.80 1017.38 1017.82 1018.02 1017.82 1017.65 1017.47 1017.44 1017.52 1017.41 1017.31 1017.91 1018.16 1018.37 1018.43 1018.61
998.15 998.38 998.60 998.91 999.17 999.41 999.74 1000.17 1000.38 1001.01 1002.20 1004.13 1005.64 1007.54 1008.46 1009.94 1010.28 1010.60 1011.14 1010.88 1010.49 1010.12 1009.42 1008.38 1007.25 1006.50 1006.06 1006.11 1006.13 1006.71 1007.38 1008.48 1010.56 1011.98 1013.06 1014.44 1016.41 1017.40 1018.42 1018.86 1019.12 1019.09 1019.00 1018.75 1018.60 1018.57 1018.84 1018.92 1019.37 1019.46 1019.76 1019.90 1019.91 1020.23
999.41 999.67 999.83 1000.14 1000.29 1000.28 1000.51 1000.88 1000.49 1001.42 1003.35 1005.50 1007.01 1009.06 1010.39 1010.71 1011.73 1012.43 1012.49 1012.34 1012.36 1011.53 1010.20 1008.87 1007.81 1006.97 1006.49 1006.32 1006.11 1007.73 1009.43 1010.93 1012.32 1014.01 1015.79 1017.63 1018.71 1020.48 1018.95 1019.75 1020.10 1020.08 1020.04 1019.82 1019.61 1019.52 1019.84 1020.27 1020.43 1020.84 1021.36 1021.19 1021.34 1021.82
1000.66 1000.80 1001.00 1000.93 1001.04 1001.24 1001.56 1001.68 1002.43 1003.67 1005.99 1007.46 1009.40 1011.37 1012.03 1013.06 1014.28 1014.74 1014.94 1014.65 1013.98 1012.69 1010.93 1009.62 1008.55 1008.13 1007.93 1008.09 1008.97 1010.46 1012.37 1013.93 1015.33 1017.64 1019.29 1019.80 1021.12 1020.91 1020.53 1020.97 1020.84 1020.96 1021.07 1021.01 1020.94 1020.91 1020.98 1021.38 1021.66 1022.00 1022.23 1022.38 1023.06 1023.09
1001.48 1002.44 1001.92 1001.77 1002.07 1002.58 1002.87 1003.90 1005.42 1007.57 1009.24 1010.77 1013.54 1014.20 1014.70 1015.71 1016.81 1017.44 1017.01 1016.49 1015.59 1014.11 1012.40 1011.28 1010.71 1010.18 1010.30 1011.41 1013.14 1015.07 1016.74 1018.74 1019.60 1020.33 1020.67 1021.05 1021.10 1021.58 1021.87 1021.89 1021.84 1021.84 1021.90 1022.03 1022.13 1022.24 1022.33 1022.52 1022.51 1022.76 1023.41 1024.20 1024.33 1024.15
1003.13 1003.22 1002.69 1002.67 1003.11 1003.81 1005.56 1006.62 1008.33 1010.11 1012.52 1014.04 1015.24 1016.52 1017.06 1017.81 1018.14 1018.53 1018.44 1017.58 1016.52 1015.45 1014.58 1014.61 1014.37 1014.13 1015.40 1016.67 1017.61 1018.78 1019.84 1020.91 1021.67 1021.73 1022.00 1022.18 1022.64 1022.84 1022.73 1022.53 1022.71 1022.91 1022.81 1023.05 1023.26 1023.39 1023.52 1023.60 1023.74 1024.44 1024.71 1025.00 1024.91 1025.10
1003.24 1003.35 1002.84 1003.10 1003.63 1005.09 1007.61 1009.15 1009.69 1012.04 1014.19 1015.26 1016.40 1017.25 1018.17 1019.08 1019.70 1019.81 1019.40 1018.60 1018.11 1017.84 1017.43 1017.69 1018.31 1019.76 1020.77 1021.42 1021.66 1021.72 1021.81 1021.97 1022.32 1022.80 1023.25 1023.50 1023.54 1023.59 1023.42 1023.36 1023.79 1023.72 1023.58 1024.16 1024.47 1024.77 1024.92 1025.13 1025.37 1025.44 1025.49 1025.56 1025.85 1026.32
1004.10 1004.16 1004.13 1004.14 1004.19 1006.35 1009.02 1010.50 1010.71 1012.61 1015.04 1016.17 1016.99 1017.96 1019.04 1019.90 1020.40 1020.68 1020.48 1019.87 1019.56 1020.26 1021.25 1022.59 1023.67 1024.03 1024.00 1024.02 1024.04 1023.71 1023.08 1022.98 1023.20 1023.64 1024.01 1024.01 1024.28 1024.17 1024.13 1024.54 1024.55 1024.87 1024.80 1025.07 1025.46 1025.80 1025.87 1026.07 1026.40 1026.62 1026.63 1026.61 1026.83 1027.40
1005.10 1005.61 1005.45 1005.07 1006.88 1008.57 1010.89 1011.83 1012.46 1013.63 1015.00 1016.40 1017.34 1018.08 1019.37 1020.22 1021.15 1021.72 1021.91 1021.76 1022.01 1024.21 1025.35 1025.74 1025.78 1025.59 1025.35 1025.19 1024.82 1024.34 1023.69 1023.54 1023.65 1023.93 1024.06 1024.55 1024.89 1025.04 1025.51 1025.81 1025.63 1025.92 1025.84 1026.30 1026.68 1027.33 1027.35 1027.54 1027.93 1028.01 1028.10 1028.35 1028.47 1028.65
1007.25 1007.01 1007.61 1007.94 1009.46 1011.25 1012.79 1013.67 1013.82 1014.43 1015.60 1016.97 1017.88 1019.01 1020.12 1021.13 1022.11 1022.87 1023.06 1023.48 1025.57 1026.79 1026.85 1026.82 1026.64 1026.32 1025.94 1025.68 1025.41 1024.90 1024.36 1024.31 1024.48 1024.67 1025.03 1025.56 1026.31 1026.50 1026.84 1026.83 1026.89 1027.36 1027.55 1027.84 1028.17 1028.65 1028.87 1029.01 1029.07 1029.16 1029.24 1029.59 1029.76 1029.87
1008.49 1008.98 1011.21 1012.37 1012.94 1014.38 1016.16 1015.09 1015.14 1015.79 1016.63 1017.91 1018.77 1020.07 1021.42 1022.35 1023.10 1023.48 1024.89 1026.37 1027.29 1027.46 1027.38 1027.11 1026.87 1026.70 1026.42 1026.21 1025.98 1025.76 1025.51 1025.44 1025.72 1026.08 1026.58 1026.95 1027.49 1028.02 1028.13 1028.30 1028.63 1028.67 1029.03 1029.61 1029.76 1029.95 1030.11 1030.20 1030.23 1030.33 1030.50 1030.64 1030.73 1030.83
1011.40 1014.57 1016.90 1018.19 1018.52 1019.16 1018.44 1018.09 1017.79 1017.79 1018.37 1019.34 1020.34 1021.67 1022.67 1023.20 1023.65 1024.71 1026.62 1027.58 1027.97 1027.76 1027.52 1027.30 1026.98 1026.91 1026.84 1026.90 1027.13 1027.32 1027.09 1026.81 1026.86 1027.49 1027.82 1028.03 1028.66 1029.55 1029.75 1029.92 1030.10 1030.45 1030.66 1030.79 1030.96 1031.16 1031.35 1031.45 1031.36 1031.30 1031.37 1031.46 1031.68 1031.70
1015.03 1022.20 1022.50 1023.18 1022.64 1021.95 1021.82 1021.39 1020.93 1020.29 1021.05 1021.51 1022.17 1022.98 1023.62 1023.81 1024.86 1026.25 1027.42 1028.11 1028.26 1028.27 1028.10 1027.69 1027.58 1027.61 1027.78 1028.09 1028.28 1028.43 1028.17 1027.82 1028.12 1028.63 1029.23 1029.46 1030.10 1030.52 1030.90 1031.20 1031.39 1031.78 1031.94 1031.95 1032.17 1032.08 1032.11 1032.09 1032.14 1032.19 1032.18 1032.15 1032.15 1031.89
1022.56 1026.03 1026.28 1026.37 1026.01 1025.27 1024.99 1024.42 1023.99 1023.80 1023.35 1023.66 1024.28 1024.43 1024.54 1024.98 1025.97 1027.48 1028.11 1028.36 1028.61 1028.80 1028.88 1028.75 1028.45 1028.47 1028.77 1029.01 1029.20 1029.32 1029.61 1029.54 1029.33 1029.58 1030.39 1030.57 1030.71 1030.98 1031.51 1031.78 1032.08 1032.50 1032.45 1032.41 1032.62 1032.66 1032.62 1032.39 1032.35 1032.46 1032.48 1032.27 1032.12 1032.01
1026.58 1027.88 1027.89 1027.67 1027.48 1026.97 1026.76 1026.49 1026.15 1025.84 1025.79 1026.21 1026.36 1025.81 1025.81 1026.68 1027.89 1028.56 1028.59 1028.79 1029.10 1029.50 1029.59 1029.43 1029.06 1029.08 1029.48 1030.00 1030.25 1030.40 1030.47 1030.27 1030.16 1030.56 1031.05 1031.21 1031.29 1031.38 1031.70 1032.32 1032.49 1032.55 1032.59 1032.50 1032.34 1032.59 1032.78 1032.62 1032.49 1032.37 1032.24 1031.86 1031.70 1031.46
1028.11 1028.68 1028.88 1028.83 1028.44 1028.06 1028.04 1028.13 1028.16 1028.18 1028.09 1028.08 1027.74 1027.73 1028.07 1028.84 1029.48 1029.47 1029.28 1029.57 1029.85 1030.06 1030.25 1030.31 1030.27 1030.16 1030.25 1030.61 1030.87 1030.97 1031.18 1031.38 1031.38 1031.41 1031.42 1031.68 1031.83 1032.06 1032.33 1032.74 1032.77 1031.04 1032.21 1032.47 1031.90 1031.75 1031.85 1032.00 1031.89 1031.57 1031.34 1031.10 1030.59 1030.06
1028.98 1029.27 1029.15 1029.29 1028.95 1029.22 1029.74 1029.95 1029.83 1029.59 1029.53 1029.25 1028.98 1029.34 1029.81 1030.25 1030.56 1030.37 1030.19 1030.16 1030.26 1030.46 1030.70 1030.90 1031.00 1030.92 1031.02 1031.30 1031.58 1031.75 1031.84 1031.70 1031.81 1031.99 1032.10 1032.31 1032.43 1032.46 1032.47 1032.62 1032.60 1032.66 1032.72 1032.21 1031.56 1030.39 1029.97 1029.93 1030.17 1030.20 1030.09 1029.96 1029.49 1029.16
1029.96 1029.78 1029.62 1029.94 1030.18 1030.79 1031.13 1031.10 1030.77 1030.41 1030.02 1029.86 1029.90 1030.26 1030.65 1030.93 1030.96 1030.93 1030.83 1030.79 1030.78 1030.99 1031.30 1031.45 1031.53 1031.41 1031.60 1031.86 1031.95 1031.93 1031.99 1032.05 1032.23 1032.34 1032.09 1032.43 1032.53 1032.32 1032.30 1032.33 1032.31 1032.30 1032.42 1031.90 1031.20 1030.50 1030.21 1029.44 1029.63 1029.58 1029.36 1029.07 1028.77 1028.46
1031.02 1030.35 1030.67 1031.17 1031.82 1032.13 1032.17 1031.93 1031.34 1030.85 1030.48 1030.59 1030.58 1031.09 1031.79 1031.74 1031.14 1031.13 1031.24 1031.48 1031.63 1031.80 1031.99 1032.09 1032.11 1032.29 1032.50 1032.37 1032.38 1032.09 1032.18 1032.13 1032.03 1031.84 1031.83 1031.85 1031.86 1031.82 1031.64 1031.38 1031.23 1031.61 1031.64 1031.21 1030.79 1030.52 1030.14 1029.76 1029.49 1029.21 1028.79 1028.31 1027.77 1027.44
1033.02 1033.53 1033.35 1033.16 1033.35 1033.17 1032.85 1032.63 1032.27 1031.86 1031.79 1031.79 1032.42 1032.42 1032.43 1032.33 1031.95 1031.26 1031.35 1032.05 1032.20 1032.38 1031.98 1032.13 1032.45 1032.30 1031.97 1031.78 1031.73 1031.61 1031.51 1031.53 1031.50 1031.29 1031.07 1030.83 1030.62 1030.66 1030.67 1030.64 1030.60 1030.82 1030.69 1030.24 1029.88 1029.62 1029.32 1029.01 1028.68 1028.24 1027.69 1027.05 1026.43 1025.83
1035.86 1035.59 1035.60 1035.49 1035.16 1034.83 1034.69 1034.47 1033.80 1033.28 1032.96 1033.39 1033.69 1034.13 1034.02 1033.89 1032.81 1031.73 1031.38 1031.43 1031.14 1031.29 1031.26 1031.64 1031.61 1031.54 1031.50 1031.30 1031.10 1030.79 1030.88 1030.71 1030.53 1029.81 1029.35 1029.42 1029.41 1029.23 1029.01 1028.81 1028.94 1028.97 1029.00 1028.85 1028.53 1028.24 1027.93 1027.63 1027.22 1026.68 1026.17 1025.59 1024.87 1024.18
Wind_Speed
33 34 30 30 31 30 28 27 27 27 24 23 23 24 24 24 22 10 3 10 5 3 6 9 9 8 5 6 12 5 2 2 4 6 5 5 5 5 5 4 5 7 6 6 6 7 8 7 3 10 6 3 4 3
37 34 28 28 32 28 28 27 26 24 23 23 22 24 25 24 22 16 3 6 6 4 2 2 6 11 11 9 4 5 4 7 9 3 4 4 4 3 5 12 1 9 12 7 10 6 3 8 3 3 5 8 5 4
35 27 25 25 26 28 26 26 25 24 24 21 22 24 25 25 23 16 4 5 2 3 4 5 10 9 6 12 6 5 4 3 4 4 4 3 7 3 4 6 4 3 2 3 2 5 7 5 3 2 2 3 1 2
18 20 21 22 28 26 23 25 23 22 22 21 21 23 24 24 23 18 5 6 4 1 3 6 2 7 3 5 15 16 13 4 1 3 4 4 2 2 2 3 3 2 1 2 4 7 6 7 5 2 5 3 3 2
21 18 22 19 27 22 22 22 22 21 21 21 21 22 23 23 21 7 3 6 7 5 3 4 5 5 3 5 10 11 13 9 4 5 5 3 1 1 1 3 7 3 4 3 5 4 1 4 6 4 5 4 4 2
20 20 17 19 18 20 20 20 20 20 21 20 20 21 21 21 18 4 2 3 8 5 3 4 3 4 1 4 7 9 10 7 5 3 4 4 6 4 2 3 6 5 2 1 4 1 2 5 6 3 4 3 4 5
20 20 19 20 18 17 18 18 20 21 21 19 19 19 20 21 7 4 6 5 17 8 3 2 4 4 2 4 3 3 4 4 4 2 5 4 4 8 4 9 7 5 5 4 1 2 4 4 5 2 5 6 4 3
15 18 20 18 16 16 13 14 16 17 17 17 17 17 17 18 11 6 4 6 11 4 3 4 5 1 5 6 4 4 3 4 3 4 2 3 2 3 5 8 4 3 2 2 2 4 4 4 4 5 4 2 3 5
12 17 17 17 16 16 18 17 15 16 18 18 16 14 2 3 3 4 11 14 3 4 4 5 6 6 2 4 2 3 3 4 2 5 5 5 3 7 10 10 8 7 6 3 4 3 2 1 1 2 3 4 6 4
7 13 15 15 15 14 13 13 13 16 18 16 6 3 3 4 6 13 4 4 5 5 4 4 4 3 5 1 2 0 2 4 4 5 3 3 4 3 3 2 4 4 2 1 2 1 1 2 1 3 4 4 6 5
10 14 15 15 14 13 14 14 17 19 14 3 3 3 1 7 4 2 4 4 1 2 2 4 7 5 3 4 4 3 3 3 5 6 7 4 4 4 7 6 5 5 4 4 5 4 4 2 4 4 5 6 6 6
8 13 14 14 13 11 11 14 18 6 2 6 6 5 2 3 2 4 3 1 4 8 2 5 5 4 4 3 4 3 4 2 6 2 5 5 5 6 6 6 7 7 6 5 6 6 6 7 8 6 5 5 5 5
11 12 12 11 12 11 9 15 14 20 12 4 4 4 3 0 3 5 7 3 3 3 4 4 5 5 3 4 3 4 5 5 5 1 5 6 3 3 3 3 3 5 3 4 5 5 6 8 9 6 7 6 6 7
9 8 6 5 8 9 9 13 21 15 5 4 4 4 5 1 5 6 6 6 3 0 2 0 2 5 4 5 4 5 2 4 4 3 7 1 2 2 2 3 1 3 3 5 5 6 7 8 9 8 8 5 6 8
22 20 18 15 12 11 14 9 11 5 3 3 5 6 6 2 3 1 2 2 4 3 2 1 2 3 2 4 2 3 3 4 7 7 2 2 4 4 5 3 3 3 3 4 4 7 8 8 9 11 8 9 9 8
13 14 9 10 11 15 14 11 8 4 5 4 7 1 2 4 3 5 5 2 5 5 3 3 3 2 5 2 3 5 5 6 2 2 2 2 1 3 4 3 4 4 5 5 6 7 9 8 9 9 10 11 9 9
14 3 6 13 18 19 18 7 5 8 5 5 3 3 3 4 2 1 2 3 6 4 2 2 5 6 2 2 2 3 2 3 3 3 2 4 4 4 3 5 5 6 7 6 8 8 8 6 8 11 13 7 8 10
4 3 4 13 7 6 5 5 5 5 7 3 4 3 3 4 2 2 3 4 3 3 3 2 2 4 1 2 1 2 2 1 1 2 4 4 4 4 4 6 7 7 8 8 7 7 8 8 10 7 7 4 7 8
3 4 6 11 6 6 5 5 4 5 2 2 4 3 4 3 4 4 4 4 4 4 3 4 6 3 1 2 1 2 1 1 1 3 4 4 5 5 7 8 7 7 10 8 8 7 6 8 5 4 4 4 6 4
17 18 13 14 7 5 6 3 3 5 3 2 3 3 3 3 2 3 6 5 4 4 8 7 2 0 1 1 1 3 2 3 3 4 4 5 4 6 7 5 6 6 7 8 7 7 5 6 6 6 5 5 6 5
10 9 14 7 5 7 5 3 4 3 3 4 2 2 3 2 3 4 4 5 5 6 3 1 2 3 2 2 3 3 1 1 2 1 3 4 4 5 5 4 6 5 6 6 6 5 7 6 4 4 5 5 4 4
2 12 5 9 6 5 6 5 3 3 4 3 3 3 3 3 3 4 3 7 5 1 1 1 2 2 2 2 3 5 4 7 7 7 9 6 3 4 4 4 5 5 6 5 4 4 4 4 3 3 4 3 4 3
8 7 7 9 8 8 2 5 5 4 4 2 2 4 3 3 2 1 5 3 1 1 2 2 1 2 3 4 5 7 7 7 6 6 6 6 6 5 5 6 3 5 5 4 3 3 3 4 4 4 3 3 2 3
13 10 9 7 8 3 4 6 4 3 3 4 3 3 3 1 1 4 4 1 2 2 3 4 2 1 3 6 5 4 4 4 7 6 5 6 6 5 4 4 4 4 3 2 3 3 3 3 3 3 3 3 3 2
13 13 8 9 5 6 7 5 5 4 4 4 3 3 2 2 3 4 2 1 2 3 3 3 4 4 3 3 3 3 6 4 5 6 4 5 5 4 4 3 4 3 2 2 2 2 2 2 3 3 2 1 3 4
13 5 6 4 5 5 4 4 5 4 3 3 4 2 2 2 4 3 2 1 1 2 2 2 2 3 4 4 2 3 3 4 2 4 2 0 1 2 3 2 1 2 1 1 3 1 2 2 2 4 4 5 4 3
9 5 3 2 0 2 3 3 2 4 4 4 3 4 2 4 3 1 0 2 1 1 2 2 2 3 4 3 2 2 3 3 3 3 3 2 2 1 2 3 3 3 2 2 2 3 2 3 3 4 5 4 5 5
3 4 5 5 4 3 3 3 4 4 3 3 2 4 3 2 2 2 2 2 2 3 2 3 3 3 3 3 1 1 3 2 3 3 2 2 1 1 1 1 1 2 1 2 2 3 4 4 5 6 6 8 8 4
4 3 2 5 3 5 5 4 3 2 2 1 1 2 2 1 1 2 1 1 1 2 2 2 2 1 2 2 1 0 1 3 2 1 1 2 3 3 2 2 2 2 2 2 7 8 7 8 8 8 7 6 7 6
4 2 2 3 4 5 3 2 3 2 2 0 1 3 2 2 1 1 1 0 1 2 1 1 0 0 1 1 1 2 2 2 3 4 3 2 4 3 2 3 4 3 2 2 4 5 8 5 6 4 5 6 5 7
4 3 4 5 4 2 3 4 3 2 2 3 5 3 1 2 2 1 1 1 2 2 2 1 1 1 2 2 2 0 3 3 5 5 4 3 3 4 5 4 4 2 2 3 4 3 5 5 4 7 9 11 12 11
5 5 3 3 1 2 4 3 3 3 4 3 3 2 2 2 2 2 3 4 3 1 5 3 2 4 5 3 3 3 4 3 4 5 6 4 4 5 4 4 4 4 5 6 5 5 6 8 8 9 11 14 14 14
3 1 2 2 3 4 4 4 5 3 4 3 2 1 2 2 3 4 2 4 4 4 4 5 5 4 5 6 5 4 5 4 6 9 10 12 13 11 7 6 5 6 7 7 8 8 10 12 12 13 14 15 16 17
Wind_Direction
254 249 245 246 249 243 239 228 223 222 223 227 228 229 224 221 215 199 178 177 180 217 225 196 194 214 266 210 230 215 121 166 206 222 221 213 227 232 210 196 191 192 201 197 216 252 248 165 90 165 204 173 185 244
259 244 240 242 246 240 235 224 221 220 224 226 228 225 222 219 213 197 179 173 181 214 279 306 269 233 227 230 217 223 206 181 205 169 217 229 236 196 228 242 175 239 219 207 193 215 253 204 228 218 173 177 209 201
235 235 237 244 241 237 226 224 220 219 221 225 227 226 220 215 211 200 146 140 148 246 265 221 231 237 187 206 204 220 219 221 234 188 163 242 241 136 201 220 210 266 241 213 33 251 254 244 229 240 213 232 173 242
247 239 234 234 241 219 217 223 219 221 219 224 225 223 216 211 208 199 154 156 143 128 232 268 251 247 160 183 225 220 225 187 288 305 227 207 220 167 242 316 247 198 134 242 291 288 290 262 231 247 224 222 225 233
249 247 237 234 230 205 210 224 220 218 219 220 221 217 210 207 205 189 148 180 171 168 207 259 298 241 224 204 213 203 217 214 194 214 222 238 187 81 222 135 243 208 216 210 239 233 279 291 330 308 205 222 238 227
242 239 229 222 219 216 216 218 222 217 213 212 211 209 201 199 193 126 166 224 187 162 232 239 301 287 295 246 231 208 203 216 210 193 196 193 176 163 217 252 259 216 241 149 279 286 268 289 279 274 182 116 67 64
237 220 207 214 212 216 214 213 211 206 201 200 198 195 192 194 162 154 179 211 182 150 144 261 273 286 188 237 232 217 179 219 202 248 206 192 209 183 176 239 238 218 250 211 286 344 276 229 285 192 148 129 96 66
220 201 196 196 193 189 183 191 191 188 191 190 190 191 193 198 165 212 224 121 149 158 158 200 259 280 192 210 210 187 179 190 211 192 151 206 151 212 221 227 176 161 183 148 13 320 291 318 4 21 29 39 131 84
212 186 183 180 180 179 190 192 194 189 188 188 187 189 167 151 155 214 193 213 168 215 200 155 155 226 264 227 187 188 161 196 165 206 198 166 200 208 204 208 190 184 188 164 316 305 56 136 59 23 97 72 97 81
182 179 175 175 178 181 190 198 202 190 186 172 117 128 156 208 158 117 107 171 202 203 205 197 153 208 189 137 306 23 165 204 182 216 134 205 236 282 204 121 93 132 147 144 147 270 116 169 99 62 60 62 83 91
191 175 176 177 174 175 186 195 190 179 143 85 115 141 91 156 80 135 178 171 180 241 196 206 183 167 238 155 207 233 221 238 182 203 162 153 271 239 114 99 62 36 18 14 346 69 69 97 117 118 72 57 70 72
187 169 165 171 171 179 184 185 160 110 107 140 122 112 81 73 119 148 166 27 195 215 268 164 206 171 170 159 182 212 206 152 236 140 131 197 232 30 59 71 38 20 16 37 14 36 44 66 65 79 69 65 55 65
140 153 174 174 181 176 184 181 153 126 110 68 72 81 115 295 104 169 177 237 257 233 214 174 185 162 162 198 197 172 222 209 124 163 213 212 97 59 32 57 56 6 37 65 61 51 51 66 59 53 79 55 59 68
104 107 140 151 176 172 172 175 153 132 84 101 129 130 165 249 242 183 182 183 220 25 315 286 176 176 182 195 174 206 158 124 189 221 238 38 15 86 56 34 344 34 33 84 80 79 77 80 77 67 57 52 69 70
81 77 76 76 79 98 112 107 78 49 76 141 111 197 200 192 57 241 218 77 356 280 275 237 268 215 231 252 163 118 141 219 204 220 23 4 24 303 67 54 58 57 51 69 74 95 90 86 86 77 54 56 60 71
69 53 44 83 92 82 74 45 35 60 57 55 34 86 338 61 336 26 3 12 358 323 272 244 213 207 226 227 150 208 183 205 214 69 292 2 302 349 52 63 72 75 67 70 62 76 86 82 85 83 67 56 52 64
61 24 20 87 79 65 46 65 41 44 55 51 19 9 38 90 118 196 336 337 320 308 195 303 208 217 358 131 217 51 261 304 292 314 351 15 43 44 53 61 59 78 83 73 80 78 80 79 85 80 75 55 68 64
65 286 53 134 102 53 39 41 75 69 62 23 71 314 49 23 41 21 328 334 339 12 349 77 308 52 86 193 112 48 103 333 343 28 39 36 33 43 74 87 72 75 77 70 67 68 68 76 81 81 85 75 78 65
129 53 62 100 94 92 79 28 51 89 97 124 102 75 82 87 62 11 341 351 54 26 52 33 64 68 65 354 340 0 60 61 51 56 55 48 65 72 80 76 76 75 77 69 66 65 66 54 59 66 74 74 79 54
70 47 48 51 52 75 71 35 69 86 91 157 63 62 79 72 15 13 11 11 37 48 45 41 42 355 278 352 302 294 333 100 114 110 93 72 50 64 57 69 82 85 84 80 68 63 77 69 44 46 48 56 76 62
34 356 17 49 51 56 75 23 63 79 107 82 172 65 78 69 41 16 6 353 61 34 65 50 269 263 270 268 290 272 6 153 90 334 102 97 60 67 72 57 66 62 73 73 76 61 54 63 49 38 55 55 55 57
342 19 49 5 76 53 71 17 48 80 70 114 70 48 46 41 26 18 326 41 57 27 7 312 298 306 347 25 335 354 42 74 76 79 76 82 88 69 59 55 70 70 60 57 62 74 68 55 58 63 72 55 45 41
28 34 47 13 70 42 337 340 70 19 81 76 65 56 39 46 17 71 70 63 100 355 262 257 311 352 52 30 42 38 44 79 80 73 76 76 70 56 58 49 41 84 86 59 47 64 67 46 52 57 43 44 35 19
33 46 35 39 27 39 347 30 10 49 66 57 55 69 34 18 60 58 73 22 307 332 354 353 354 62 56 50 43 20 12 74 84 71 60 90 86 56 47 59 54 51 45 96 67 59 50 32 34 41 38 54 27 20
69 1 39 6 1 30 33 23 12 43 69 42 85 70 360 5 71 55 57 328 5 358 353 14 49 53 80 82 67 44 21 40 94 95 38 79 107 99 78 61 62 37 336 83 49 57 14 15 21 23 15 22 348 332
68 330 58 2 1 40 5 54 33 25 19 69 47 358 25 68 68 63 30 45 40 14 359 6 70 93 61 24 62 43 18 351 41 81 95 105 125 137 151 156 133 304 349 130 126 87 349 358 6 350 325 319 306 299
54 342 337 46 91 337 56 43 28 48 57 43 354 349 52 70 78 41 153 34 60 41 5 342 1 86 111 112 84 35 15 15 45 92 109 96 70 75 142 155 196 232 189 168 142 150 228 279 279 273 278 276 253 250
102 36 44 326 33 12 68 46 32 29 19 350 286 41 77 109 140 25 41 60 83 87 66 39 34 48 75 74 70 103 82 76 91 96 101 75 55 79 81 84 305 15 81 182 215 208 212 227 245 263 265 273 285 243
41 354 25 15 34 51 41 21 8 338 353 328 34 89 115 39 286 322 33 90 139 140 123 121 71 58 95 88 67 309 214 190 155 108 115 273 328 299 232 273 326 318 291 284 284 278 250 237 243 253 251 256 273 276
349 350 90 50 44 44 358 341 323 328 265 59 178 117 84 13 306 290 295 269 162 115 90 62 66 182 106 228 268 251 235 233 213 172 174 227 230 241 235 265 276 263 235 240 277 291 302 326 319 317 307 298 290 288
310 348 59 40 74 356 322 315 280 272 358 41 16 74 98 299 277 213 221 142 122 133 170 206 233 213 188 203 181 104 319 262 228 238 227 229 243 245 249 250 246 245 245 247 263 260 274 283 272 281 283 281 280 277
15 36 15 73 94 11 1 12 352 43 355 45 9 354 352 35 357 274 179 121 92 223 233 186 197 257 208 219 219 238 223 236 226 229 237 240 253 257 260 257 245 232 238 251 248 252 255 256 268 267 271 274 274 275
43 46 46 44 15 3 1 10 21 6 27 33 343 243 231 185 213 260 280 217 187 185 200 211 221 220 214 217 224 241 235 230 254 271 267 257 251 254 251 234 226 224 240 251 254 253 256 257 262 266 268 270 273 275